User: anonymous   Login
Location: Theydon Bois
(51.6750°N, 0.1050°E)
Time: 01:23:55
(UTC+00:00)
Language:

NOSS 3-4 (C) - Orbit

View from above orbital plane
View from above orbital plane
View from above satellite
View from above satellite

Ground track
Ground track

The orbit data is extracted from the following two-line orbital elements,

1 31708U 07027C   17350.82910881 0.00000000  00000-0  00000-0 0    01
2 31708  63.4021 337.9760 0207000  22.5957 337.4043 13.40740199    03
Epoch (UTC): 16 December 2017 19:53:55
Eccentricity: 0.0207000
inclination: 63.4021°
perigee height: 951 km
apogee height: 1261 km
right ascension of ascending node: 337.9760°
argument of perigee: 22.5957°
revolutions per day: 13.40740199
mean anomaly at epoch: 337.4043°
orbit number at epoch: 0

The dashed part of the orbit path shows where the satellite is in the earth's shadow,  

DLR